Location: A�t �Alizem
(31.2076°N, 8.7872°W)
Time: 06:27:34
(UTC+00:00)

H-2A R/B - Pass Details

Date: 27 November 2020
Orbit: 734 x 836 km, 98.2° (Epoch: 25 January)

Event Time Altitude Azimuth Distance (km) Brightness Sun altitude
Rises 19:29:00 0° 161° (SSE) 3,352 5.2 -24.5°
Reaches altitude 10° 19:31:22 10° 159° (SSE) 2,412 4.5 -25.0°
Enters shadow 19:33:07 21° 156° (SSE) 1,744 3.7 -25.4°
Exits shadow 19:40:21 20° 355° (N) 1,772 3.8 -26.9°
Drops below altitude 10° 19:41:55 10° 353° (N) 2,366 4.5 -27.2°
Sets 19:44:13 0° 351° (N) 3,283 5.3 -27.7°
